M6P (44109 NORAD) Tracking and Keplerian Element Data

This shows tracking and keplerian element data for the satellite.

Feedback or suggestion? Click here.




ElementValue
Catalog44109
NameM6P
Epoch Orbit416
Epoch Day119.7525799
Epoch Year2019
RAAN180.5587
Inclination97.5111
Eccentricity0.0059803
Argument of Perigee240.2215
Mean Anonmoly235.9448
Mean Motion15.29524142
Decay Rate9.78E-06
L11 44109U 19018AF 19119.75257990 .00000978 00000-0 35257-4 0 9992
L22 44109 97.5111 180.5587 0059803 240.2215 235.9448 15.29524142 4160

Live tracking and technical data element details for M6P (NORAD 44109). M6P can be tracked NOW for your location showing map with azimuth and elevation plus other details from your city location.

Track the satellite on the map from your city or location and see movement details for azimuth, elevation, latitude, longitude, range, height, and movement on the map or in text.







IsCatalogInMostPopularTable: catalog: 44109, numindb: 25
Update: records affected: 1



GetName: 44109 M6P

Hit Count: updated at: Sun, 21 Jul 2019 16:29:20 GMT